Flag for U.S.A. Weather past 2 weeks in Lansing, Michigan, U.S.A.

Now
38 °F

More clouds than sun.


Feels Like: 31 °F
Forecast: 28 / 41 °F
Wind: 9 mph from Southeast

Location: Capital City Airport

Current Time: Dec 22, 2014 at 3:43:53 PM

Latest Report: Dec 22, 2014 at 2:53 PM


Visibility: 8 mi

Pressure: 29.94 "Hg

Humidity: 68%

Dew point: 28 °F

Location of LansingLocation

Historic Weather in Lansing — Graph

°F

Lansing temperature yesterday

Maximum temperature yesterday: 33 °F (at 11:53 AM)
Minimum temperature yesterday: 28 °F (at 12:53 AM)
Average temperature yesterday: 30 °F

Past Weeks' High & Low Weather Summary

 TemperatureHumidityPressure
High51 °F (Dec 15, 3:53 PM)100% (Dec 9, 1:53 AM)30.61 "Hg (Dec 9, 1:53 AM)
Low17 °F (Dec 20, 3:53 AM)35% (Dec 7, 2:53 PM)29.66 "Hg (Dec 16, 8:03 AM)
Average33 °F83%30.16 "Hg
* Reported Dec 7 2:53 PM — Dec 22 2:53 PM, Lansing, Weather by CustomWeather, © 2014

Note: Actual official high and low records may vary slightly from our data, if they occured in-between our weather recording intervals... More about our weather records

Advertising

Lansing weather history for previous 24 hours

 ConditionsComfort  
Time TempWeatherWind HumidityBarometerVisibility
2:53 PM
Dec 22
38 °FMore clouds than sun.9 mph68%29.94 "Hg8 mi
1:53 PM38 °FOvercast.12 mph68%29.96 "Hg8 mi
12:53 PM37 °FPartly sunny.12 mph67%29.98 "Hg8 mi
11:53 AM35 °FPassing clouds.14 mph70%30.02 "Hg7 mi
10:53 AM33 °FSunny.10 mph75%30.07 "Hg5 mi
9:53 AM30 °FSunny.12 mph82%30.08 "Hg4 mi
8:53 AM27 °FIce fog.8 mph89%30.10 "Hg3 mi
7:53 AM27 °FIce fog.10 mph85%30.10 "Hg4 mi
6:53 AM27 °FIce fog.8 mph89%30.10 "Hg4 mi
5:53 AM27 °FIce fog.8 mph85%30.11 "Hg5 mi
4:53 AM27 °FIce fog.8 mph85%30.12 "Hg5 mi
3:53 AM28 °FClear.9 mph81%30.13 "Hg5 mi
2:53 AM28 °FClear.9 mph81%30.13 "Hg5 mi
1:53 AM28 °FIce fog.12 mph85%30.14 "Hg5 mi
12:53 AM28 °FIce fog.9 mph85%30.16 "Hg5 mi
11:53 PM
Dec 21
29 °FClear.12 mph82%30.18 "Hg6 mi
10:53 PM29 °FClear.8 mph82%30.19 "Hg6 mi
9:53 PM30 °FHaze.10 mph82%30.20 "Hg6 mi
8:53 PM31 °FPassing clouds.12 mph79%30.21 "Hg5 mi
7:53 PM31 °FClear.10 mph79%30.21 "Hg5 mi
6:53 PM32 °FOvercast.10 mph79%30.21 "Hg6 mi
5:53 PM33 °FOvercast.10 mph75%30.22 "Hg6 mi
4:53 PM33 °FOvercast.13 mph75%30.21 "Hg5 mi
3:53 PM33 °FOvercast.7 mph72%30.22 "Hg6 mi
Weather by CustomWeather, © 2014

See weather overviewHow to use our weather pages